Weather Roundup
Issued by NWS Corpus Christi, TX

Home | Current Version | Previous Version | Text Only | Print | Product List | Glossary On
Versions: 1 2 3 4 5 6 7 8 9 10 11 12 13 14 15 16 17 18 19 20 21 22 23 24 25 26 27 28 29 30 31 32 33 34 35 36 37 38 39 40 41 42 43 44 45 46 47 48 49 50
000
ASUS44 KCRP 271610
HRRCRP

SOUTH TEXAS REGIONAL WEATHER ROUNDUP
NATIONAL WEATHER SERVICE CORPUS CHRISTI TX
1000 AM CST THU NOV 27 2014


TXZ229>244-271700-
...CORPUS CHRISTI AREA OBSERVATIONS...

CITY           SKY/WX    TMP DP  RH WIND       PRES   REMARKS
CORPUS CHRISTI SUNNY     62  52  69 NE9       30.46R
NAS CORPUS CHR SUNNY     66  53  63 NE7       30.46R
ROCKPORT       SUNNY     62  48  60 NE13      30.47R
KINGSVILLE NAS SUNNY     64  54  69 E6        30.47R
ALICE          SUNNY     60  48  64 NE6       30.46R
FALFURRIAS     SUNNY     60  51  74 CALM      30.46R
$$

...VICTORIA AREA OBSERVATIONS...

CITY           SKY/WX    TMP DP  RH WIND       PRES   REMARKS
VICTORIA       SUNNY     60  38  43 NE14G24   30.50R
BEEVILLE       FAIR      61  38  42 NE13G22   30.48R
PLEASANTON     SUNNY     58  32  38 NE16G24   30.51R
SAN ANTONIO    SUNNY     56  30  37 NE10      30.52R
$$

...LAREDO AREA OBSERVATIONS...

CITY           SKY/WX    TMP DP  RH WIND       PRES   REMARKS
LAREDO         SUNNY     61  39  44 E7        30.48R
COTULLA        SUNNY     61  36  39 E15G23    30.49R
DEL RIO        SUNNY     55  43  63 W3        30.49R
MCALLEN        SUNNY     63  52  67 SE6       30.45R
HEBBRONVILLE   SUNNY     60  46  59 NE5       30.46R
$$

...OTHER TEXAS OBSERVATIONS...

CITY           SKY/WX    TMP DP  RH WIND       PRES   REMARKS
BROWNSVILLE    SUNNY     68  53  58 SW5       30.44R
HOUSTON        SUNNY     56  32  40 NE9       30.51R
COL. STATION   SUNNY     53  30  41 NE10      30.52R
AUSTIN         SUNNY     51  32  48 NE10      30.54R
WACO           SUNNY     49  29  46 NE10      30.55R
FORT WORTH     MOSUNNY   45  26  47 VRB3      30.55R
WICHITA FALLS  SUNNY     42  27  55 NE5       30.55S
LUBBOCK        SUNNY     40  22  48 SE14      30.49R WCI  32
EL PASO        SUNNY     48  21  34 CALM      30.43R
$$

...MARINE OBSERVATIONS...

STATION/POSITION TIME  SKY/WX   TEMP    WIND        PRES    VSBY  WAVE   SWELL
                                AIR SEA DIR/SP/G                  HT/PER HT/PER
                 (UTC)          (F)     (DEG/KT/KT) (MB)    (MI)  (FT/S) (FT/S)
PORT ARANSAS     1600            61 61   20/  9/ 10 1031.8R
BUOY 90 E PORT A 1600            67 72   50/ 14/ 17 1031.3R         2/ 3
BUOY 45 SE BAFFI 1600            69 73  290/  4/  6 1030.7R         2/ 7   2/ 7
BUOY 200 E PT IS 1600            71 74   10/  4/ 10 1030.1R         2/ 5
BUOY 15 E GALVES 1600            55 61   50/ 19/ 21 1031.9R         4/ 4
$$



USA.gov is the U.S. government's official web portal to all federal, state and local government web resources and services.